Вернуться в каталог

ARIANE 2 DEB

АктивенGTO
NORAD 27043·DEBRIS·🇫🇷 France

Запущен Jan 27, 1989 с Guiana Space Centre

Loading…

TLE

УстаревшееSource: Space-Track

Эпоха: Sep 11, 2026, 04:31 UTC

1 27043U 89006Y   26254.18849377 -.00000185  00000-0  10142-2 0  9990
2 27043   7.8813 247.0601 7109867 104.4222 357.3664  2.25078485206450

Отслеживайте ARIANE 2 DEB в реальном времени с AllMySat

Download on the App Store